Austin, TX

4:41 PM CDT on June 24, 2017 (GMT -0500)
Austin

Weather History for KATT - November, 2012

Change the Weather History Date:

Sunday, November 25, 2012

  Actual Average Record
Temperature  
Mean Temperature 62 °F 57 °F  
Max Temperature 77 °F 68 °F 85 °F (1967)
Min Temperature 46 °F 47 °F 23 °F (1938)
Degree Days  
Heating Degree Days 3 9  
Month to date heating degree days 83 134  
Since 1 July heating degree days 143 165  
Cooling Degree Days 0 1  
Month to date cooling degree days 85 56  
Year to date cooling degree days 3549 3121  
Growing Degree Days 12 (Base 50)    
Moisture  
Dew Point 47 °F    
Average Humidity 58    
Maximum Humidity 78    
Minimum Humidity 38    
Precipitation  
Precipitation 0.00 in 0.09 in 1.48 in (1940)
Month to date precipitation 0.00 2.51  
Year to date precipitation 32.67 31.47  
Snow  
Snow 0.00 in - - ()
Month to date snowfall 0.0  
Since 1 July snowfall 0.0  
Since 1 September snowfall 0.0  
Snow Depth 0.00 in    
Sea Level Pressure  
Sea Level Pressure 30.02 in    
Wind  
Wind Speed 4 mph (South)    
Max Wind Speed 14 mph    
Max Gust Speed 22 mph    
Visibility 10 miles    
Events      
T = Trace of Precipitation, MM = Missing Value Source: NWS Daily Summary

Daily Weather History Graph

Daily Weather History Graph

Search for Another Location

Airport or City:

Trip Planner

Search our weather history database for the weather conditions in past years. The results will help you decide how hot, cold, wet, or windy it might be!

Date:

Astronomy

Nov. 25, 2012 Rise Set
Actual Time 7:05 AM CST 5:30 PM CST
Civil Twilight 6:39 AM CST 5:56 PM CST
Nautical Twilight 6:10 AM CST 6:26 PM CST
Astronomical Twilight 5:41 AM CST 6:55 PM CST
Moon 3:42 PM CST (11/25) 4:28 AM CST (11/25)
Length of Visible Light 11h 17m
Length of Day
10h 25m
Waxing Gibbous, 93% of the Moon is Illuminated
Nov 25
Waxing Gibbous
Nov 28
Full
Dec 6
Last Quarter
Dec 13
New
Dec 19
First Quarter

Hourly Weather History & Observations

Time (CST) Temp. Dew Point Humidity Pressure Visibility Wind Dir Wind Speed Gust Speed Precip Events Conditions
12:51 AM 46.9 °F 27.0 °F 46% 30.15 in 10.0 mi Calm Calm - N/A   Clear
1:51 AM 46.9 °F 26.1 °F 44% 30.13 in 10.0 mi Calm Calm - N/A   Clear
2:51 AM 48.0 °F 28.0 °F 46% 30.11 in 10.0 mi SSW 4.6 mph - N/A   Clear
3:51 AM 48.9 °F 30.9 °F 50% 30.09 in 10.0 mi SSW 6.9 mph - N/A   Clear
4:51 AM 48.0 °F 32.0 °F 54% 30.08 in 10.0 mi Calm Calm - N/A   Clear
5:51 AM 48.0 °F 35.1 °F 61% 30.07 in 10.0 mi South 3.5 mph - N/A   Clear
6:51 AM 46.9 °F 35.1 °F 63% 30.09 in 10.0 mi Calm Calm - N/A   Clear
7:51 AM 50.0 °F 37.0 °F 61% 30.09 in 10.0 mi Calm Calm - N/A   Clear
8:51 AM 54.0 °F 37.9 °F 55% 30.11 in 10.0 mi SSW 3.5 mph - N/A   Clear
9:51 AM 62.1 °F 39.9 °F 44% 30.10 in 10.0 mi SSW 5.8 mph - N/A   Clear
10:51 AM 69.1 °F 46.0 °F 44% 30.07 in 10.0 mi SSW 8.1 mph - N/A   Clear
11:51 AM 73.0 °F 46.9 °F 39% 30.04 in 10.0 mi Variable 5.8 mph - N/A   Clear
12:51 PM 75.9 °F 50.0 °F 40% 30.00 in 10.0 mi Variable 5.8 mph 19.6 mph N/A   Clear
1:51 PM 75.9 °F 51.1 °F 42% 29.96 in 10.0 mi SSW 9.2 mph 16.1 mph N/A   Clear
2:51 PM 77.0 °F 50.0 °F 39% 29.94 in 10.0 mi SSE 8.1 mph 21.9 mph N/A   Clear
3:51 PM 75.0 °F 50.0 °F 41% 29.93 in 10.0 mi Variable 5.8 mph 21.9 mph N/A   Clear
4:51 PM 73.0 °F 52.0 °F 48% 29.92 in 10.0 mi SSW 9.2 mph 17.3 mph N/A   Clear
5:51 PM 70.0 °F 55.9 °F 61% 29.93 in 10.0 mi Variable 6.9 mph - N/A   Clear
6:51 PM 68.0 °F 55.9 °F 65% 29.94 in 10.0 mi SSE 5.8 mph - N/A   Clear
7:51 PM 66.0 °F 55.9 °F 70% 29.95 in 10.0 mi Calm Calm - N/A   Clear
8:51 PM 64.0 °F 55.9 °F 75% 29.96 in 10.0 mi SSE 3.5 mph - N/A   Scattered Clouds
9:51 PM 64.0 °F 57.0 °F 78% 29.96 in 10.0 mi Variable 4.6 mph - N/A   Clear
10:19 PM 64.0 °F 57.0 °F 78% 29.98 in 10.0 mi Variable 4.6 mph - N/A   Mostly Cloudy
10:51 PM 64.0 °F 57.9 °F 80% 29.96 in 10.0 mi South 4.6 mph - N/A   Mostly Cloudy
11:21 PM 64.0 °F 57.9 °F 80% 29.98 in 10.0 mi South 4.6 mph - N/A   Overcast
11:30 PM 64.0 °F 57.9 °F 80% 29.98 in 10.0 mi South 4.6 mph - N/A   Overcast
11:51 PM 64.0 °F 57.9 °F 80% 29.96 in 10.0 mi South 3.5 mph - N/A   Overcast
11:58 PM 64.0 °F 57.9 °F 80% 29.97 in 10.0 mi South 5.8 mph - N/A   Overcast